Weather Service Report


155 
ASUS45 KREV 231210
RWRNV 
NEVADA REGIONAL WEATHER ROUNDUP
NATIONAL WEATHER SERVICE RENO NV
500 AM PDT THU MAR 23 2017

NOTE: "FAIR" INDICATES FEW OR NO CLOUDS BELOW 12,000 FEET WITH NO
SIGNIFICANT WEATHER AND/OR OBSTRUCTIONS TO VISIBILITY.

NVZ001-003-004-231300-
WESTERN NEVADA
  
CITY           SKY/WX    TMP DP  RH WIND       PRES   REMARKS
RENO           PTCLDY    36  28  73 CALM      30.06S                  
6HR MIN TEMP:  36; 6HR MAX TEMP:  40;                                

CARSON CITY    FAIR      30  25  80 SW5       30.07R                  
MINDEN         FAIR      25  23  93 SW3       30.07R                  
FALLON         CLOUDY    39  28  64 W12       30.02R                  
6HR MIN TEMP:  36; 6HR MAX TEMP:  42;                                

LOVELOCK       CLOUDY    38  29  70 VRB5      30.01R                  
6HR MIN TEMP:  37; 6HR MAX TEMP:  45;                                

HAWTHORNE      CLOUDY    41  23  48 N7        30.01R                  
$$

NVZ002-CAZ072-073-231300-
NORTHERN AND CENTRAL SIERRA
  
CITY           SKY/WX    TMP DP  RH WIND       PRES   REMARKS
S. LAKE TAHOE  CLOUDY    26  21  81 S6        30.04S                  
6HR MIN TEMP:  25; 6HR MAX TEMP:  29;                                

TRUCKEE        PTCLDY    28  27  93 CALM      30.06S                  
SQUAW VLY 8000   N/A     21  21 100 N6          N/A                   
SUSANVILLE     CLEAR     32  28  86 W5        30.06R                  
MAMMOTH LAKES  FAIR      23  16  74 W10       30.02R                  
6HR MIN TEMP:  22; 6HR MAX TEMP:  30;                                

BRIDGEPORT       N/A     21  14  74 CALM      30.01R                  
$$

NVZ030-031-036-231300-
NORTHERN NEVADA
  
CITY           SKY/WX    TMP DP  RH WIND       PRES   REMARKS
ELKO           CLOUDY    36  34  92 SW5       29.89R                  
6HR MIN TEMP:  34; 6HR MAX TEMP:  36; 6HR PCP:  0.05;                

WINNEMUCCA     CLOUDY    38  34  85 CALM      29.99R                  
6HR MIN TEMP:  38; 6HR MAX TEMP:  42;                                

WENDOVER       CLOUDY    45  28  53 NW25G31   29.79R                  
$$

NVZ035-037-231300-
CENTRAL NEVADA
  
CITY           SKY/WX    TMP DP  RH WIND       PRES   REMARKS
ELY            LGT SNOW  32  32 100 N6        29.82S FOG              
6HR MIN TEMP:  32; 6HR MAX TEMP:  38; 6HR PCP:  0.11;                

EUREKA           N/A     33  30  88 N3        29.88                   
6HR MIN TEMP:  33; 6HR MAX TEMP:  33; 6HR PCP:  0.14;                

$$

NVZ013-014-231300-
SOUTH CENTRAL NEVADA
  
CITY           SKY/WX    TMP DP  RH WIND       PRES   REMARKS
TONOPAH        CLOUDY    36  28  73 NW26G35   29.91R                  
6HR MIN TEMP:  36; 6HR MAX TEMP:  40;                                

$$

NVZ017-020-022-231300-
SOUTHERN NEVADA
  
CITY           SKY/WX    TMP DP  RH WIND       PRES   REMARKS
LAS VEGAS      MOCLDY    53  27  36 S5        29.78R                  
6HR MIN TEMP:  53; 6HR MAX TEMP:  58;                                

N. LAS VEGAS   MOCLDY    55  32  41 NW15      29.77R                  
6HR MIN TEMP:  55; 6HR MAX TEMP:  60;                                

NELLIS AFB     PTCLDY    53  31  42 W6        29.77R                  
6HR MIN TEMP:  53; 6HR MAX TEMP:  60;                                

HENDERSON      CLOUDY    51  32  48 SW13      29.81R                  
6HR MIN TEMP:  49; 6HR MAX TEMP:  56;                                

MERCURY        LGT RAIN  44  39  82 W10       29.85R                  
6HR MIN TEMP:  44; 6HR MAX TEMP:  50; 6HR PCP:  0.01;                

$$
  

Return to Home page


Western Regional Climate Center, wrcc@dri.edu